GW1942 Weather Reports


time (UTC)temp
F
wind
direction
speed
knots
gust
knots
rain 1hr
in
rain 24hr
in
rain mn
in
humidity
%
barometer
mb
20260502200013 74 341 0.9 2.6 0.00 0.00 0.00 25 1015.4
20260502194524 73 105 1.7 4.3 0.00 0.00 0.00 32 1015.6
20260502193008 72 247 1.7 4.3 0.00 0.00 0.00 32 1015.8
20260502191504 72 74 0.9 1.7 0.00 0.00 0.00 33 1016.1
20260502190000 71 43 0.0 2.6 0.00 0.00 0.00 38 1016.3
20260502184602 70 289 0.9 3.5 0.00 0.00 0.00 38 1016.5
20260502183056 69 3 0.0 3.5 0.00 0.00 0.00 42 1016.6
20260502181553 67 258 0.0 3.5 0.00 0.00 0.00 42 1016.8
20260502163039 57 124 0.0 1.7 0.00 0.00 0.00 55 1018.0
20260502161525 56 265 0.0 0.9 0.00 0.00 0.00 60 1018.1
20260502151525 51 85 0.0 0.9 0.00 0.00 0.00 70 1018.6
20260502123105 36 115 0.0 0.0 0.00 0.00 0.00 90 1018.2
20260502121557 36 115 0.0 0.0 0.00 0.00 0.00 90 1018.2
20260502114556 37 116 0.0 0.9 0.00 0.00 0.00 89 1018.1
20260502113053 38 214 0.0 0.9 0.00 0.00 0.00 87 1018.1
20260502111547 37 138 0.0 0.0 0.00 0.00 0.00 88 1017.9
20260502110046 38 105 0.0 0.0 0.00 0.00 0.00 87 1018.1
20260502104544 38 105 0.0 0.9 0.00 0.00 0.00 86 1018.0
20260502103043 38 136 0.0 0.0 0.00 0.00 0.00 87 1017.9
20260502101551 39 135 0.0 0.0 0.00 0.00 0.00 85 1017.8
20260502091532 42 150 0.0 2.6 0.00 0.00 0.00 80 1017.4
20260502071518 48 191 0.0 2.6 0.00 0.00 0.00 66 1017.2
20260502070017 45 100 0.0 1.7 0.00 0.00 0.00 72 1017.2
20260502064515 45 193 0.0 0.0 0.00 0.00 0.00 72 1017.2
20260502063013 47 104 0.0 0.9 0.00 0.00 0.00 70 1017.0
20260502061519 48 96 0.0 2.6 0.00 0.00 0.00 69 1016.9
20260502060007 48 182 0.0 1.7 0.00 0.00 0.00 67 1016.7
20260502054507 51 142 0.0 1.7 0.00 0.00 0.00 60 1016.7
20260502053007 49 104 0.0 2.6 0.00 0.00 0.00 63 1016.7
20260502051515 53 139 0.0 6.1 0.00 0.00 0.00 51 1016.4
20260502050006 53 136 1.7 5.2 0.00 0.00 0.00 53 1016.3
20260502044505 51 118 0.0 0.9 0.00 0.00 0.00 63 1016.2
20260502043004 54 168 0.0 1.7 0.00 0.00 0.00 58 1016.1
20260502041512 56 103 0.9 1.7 0.00 0.00 0.00 53 1015.9
20260502040009 58 203 1.7 5.2 0.00 0.00 0.00 49 1015.8
20260502034505 58 131 2.6 6.1 0.00 0.00 0.00 46 1015.6
20260502033003 60 113 3.5 7.0 0.00 0.00 0.00 45 1015.5
20260502031603 60 104 4.3 7.0 0.00 0.00 0.00 46 1015.1
20260502030118 61 103 1.7 6.1 0.00 0.00 0.00 46 1015.0
20260502024606 60 200 0.0 0.9 0.00 0.00 0.00 53 1014.8
20260502023100 66 15 0.0 0.9 0.00 0.00 0.00 42 1014.6
20260502021605 70 260 0.0 0.9 0.00 0.00 0.00 31 1014.6
20260502020059 72 199 0.0 0.0 0.00 0.00 0.00 29 1014.4
20260502014558 72 200 0.0 0.0 0.00 0.00 0.00 27 1014.4
20260502013057 71 222 0.0 0.9 0.00 0.00 0.00 28 1014.4
20260502011557 72 222 0.9 4.3 0.00 0.00 0.00 26 1014.4
20260502010108 73 214 0.0 4.3 0.00 0.00 0.00 26 1014.5
20260502004600 75 259 0.0 3.5 0.00 0.00 0.00 26 1014.5
20260502003058 75 183 1.7 6.1 0.00 0.00 0.00 24 1014.4
20260502001554 76 32 0.0 4.3 0.00 0.00 0.00 23 1014.6
20260502000052 76 186 0.9 5.2 0.00 0.00 0.00 23 1014.5
20260501234551 75 260 0.9 5.2 0.00 0.00 0.00 23 1014.6
20260501233054 75 224 0.0 3.5 0.00 0.00 0.00 25 1014.7
20260501231551 76 304 1.7 4.3 0.00 0.00 0.00 22 1014.8
20260501230057 76 252 0.9 6.1 0.00 0.00 0.00 28 1014.9
20260501224545 76 281 3.5 7.8 0.00 0.00 0.00 23 1015.0
20260501223048 75 308 1.7 7.8 0.00 0.00 0.00 24 1015.2
20260501221542 75 270 1.7 18.2 0.00 0.00 0.00 26 1015.4
20260501220045 75 64 0.9 5.2 0.00 0.00 0.00 25 1015.4
20260501214549 75 174 3.5 8.7 0.00 0.00 0.00 24 1015.7
20260501213035 74 286 4.3 8.7 0.00 0.00 0.00 22 1016.0
20260501211537 74 115 0.9 10.4 0.00 0.00 0.00 24 1016.1
20260501210031 74 206 3.5 7.8 0.00 0.00 0.00 23 1016.3
20260501204543 74 242 2.6 7.8 0.00 0.00 0.00 23 1016.4
20260501203027 74 168 4.3 7.8 0.00 0.00 0.00 23 1016.4
20260501201525 74 184 1.7 6.1 0.00 0.00 0.00 25 1016.5